Powrót do katalogu

QIANFAN-195

AktywnyŁącznośćPO
NORAD 69413·PAYLOAD·🇨🇳 China

Wystrzelony Jun 5, 2026 z Wenchang Space Launch Site

Loading…

Następne Przeloty (najbliższe 24 godziny)

TLE

ŚwieżeSource: Space-Track

Epoka: Sep 14, 2026, 14:00 UTC

1 69413U 26125N   26257.58340008  .00000031  00000-0  29891-4 0  9996
2 69413  88.9900 270.8979 0001951  88.7803 271.3571 13.51011589 14039

Śledź QIANFAN-195 w czasie rzeczywistym z AllMySat

Download on the App Store